Voltar ao catálogo

HULIANWANG DIGUI-114

AtivoComunicaçõesPO
NORAD 66953·PAYLOAD·🇨🇳 China

Lançado Dec 8, 2025 de Taiyuan Satellite Launch Center

Loading…

Próximas Passagens (próximas 24 horas)

TLE

AtualizadoSource: Space-Track

Época: Sep 14, 2026, 23:14 UTC

1 66953U 25287A   26257.96865445  .00000012  00000-0 -61452-5 0  9999
2 66953  86.4882 252.0129 0001642  84.2377 275.8945 13.24405688 37227

Acompanhe HULIANWANG DIGUI-114 em tempo real com AllMySat

Download on the App Store